Notices

What's New in latest Release from April 7th, 2021:

- Updated Glossary, including Speed of Maximum Gust, and Total Hourly Precipitation

- Updated national and regional climate services offices contacts and prices information

- Addition of station inventory lists for 1981-2010, 1971-2000, and 1961-1990 Normals.

If you haven't already, please take our survey and provide feedback about our website: https://eccc.sondage-survey.ca/f/LanguageSelection.aspx?s=442ca660-fcf1-47c0-95a9-59707d6fd709

Hourly Data Report for March 31, 2012

MIRAMICHI RCS
NEW BRUNSWICK

47°00'34.000" N
65°27'54.000" W
33.00 m
8100989
71744
ACQ

Download Data

Hourly Data (March 2012)
Hourly Data Report for March 31, 2012
TIME
LST
Temp Definition
°C
Dew Point Definition
°C
Rel Hum Definition
%
Precip. Amount Definition
mm

Wind Dir Definition
10's deg

Wind Spd Definition
km/h
Visibility Definition
km
Stn Press Definition
kPa
Hmdx Definition


Wind Chill Definition


Weather Definition


00:00 -1.3 -8.8 57   24 11   100.74   -5 LegendNANA
01:00 -1.4 -8.2 60   24 6   100.76   -4 LegendNANA
02:00 -2.8 -8.4 65   24 7   100.75   -6 LegendNANA
03:00 -2.3 -8.1 64   25 7   100.77   -5 LegendNANA
04:00 -2.2 -8.1 64   27 7   100.84   -5 LegendNANA
05:00 -1.6 -8.3 60   34 7   100.88   -4 LegendNANA
06:00 -1.2 -8.5 58   36 11   100.93   -5 LegendNANA
07:00 -1.0 -8.2 58   33 6   101.05   -3 LegendNANA
08:00 -0.5 -8.3 56   36 7   101.03   -3 LegendNANA
09:00 0.2 -8.5 52   35 11   101.03     LegendNANA
10:00 0.6 -9.4 47   31 9   101.02     LegendNANA
11:00 1.3 -9.4 45   31 7   100.95     LegendNANA
12:00 2.9 -9.1 41   29 9   100.87     LegendNANA
13:00 3.3 -9.4 39   26 4   100.81     LegendNANA
14:00 4.3 -9.0 37   22 7   100.74     LegendNANA
15:00 5.2 -9.2 34   36 9   100.67     LegendNANA
16:00 6.4 -9.2 32   33 7   100.60     LegendNANA
17:00 5.8 -7.1 39   3 9   100.58     LegendNANA
18:00 3.2 -5.8 52   10 15   100.61     LegendNANA
19:00 0.0 -6.0 64   11 9   100.66   -3 LegendNANA
20:00 -1.8 -6.3 71   11 6   100.69   -4 LegendNANA
21:00 -1.9 -6.1 73   21 4   100.71   -3 LegendNANA
22:00 -2.8 -6.3 77   27 4   100.71   -4 LegendNANA
23:00 -3.7 -6.7 80   25 2   100.69   -5 LegendNANA

Notes on Data Quality.

Legend

  • E = Estimated
  • M = Missing
  • NA = Not Available*
  • [empty] = Indicates an unobserved value
Date modified: